Bar Harbor Weather Center

Moon Phase Calendar



Online Cameras

 


      

Current Conditions in Bar Harbor
2/26/2021 4:37:20 PM

27°F
Feels Like 17
Clear
Humidity
25%
Pressure
30.39"
Wind
7 mph (W)
Dew Point
-1°F
UV Index
0/10 (Low)
Visibility
6 mi

Hourly Forecast

Date & Time Fri, Feb 26
4:00 PM
Fri, Feb 26
5:00 PM
Fri, Feb 26
6:00 PM
Fri, Feb 26
7:00 PM
Fri, Feb 26
8:00 PM
Fri, Feb 26
9:00 PM
Fri, Feb 26
10:00 PM
Fri, Feb 26
11:00 PM
Sat, Feb 27
12:00 AM
Sat, Feb 27
1:00 AM
Sat, Feb 27
2:00 AM
Sat, Feb 27
3:00 AM
Sat, Feb 27
4:00 AM
Sat, Feb 27
5:00 AM
Sat, Feb 27
6:00 AM
Sat, Feb 27
7:00 AM
Sat, Feb 27
8:00 AM
Sat, Feb 27
9:00 AM
Sat, Feb 27
10:00 AM
Sat, Feb 27
11:00 AM
Sat, Feb 27
12:00 PM
Sat, Feb 27
1:00 PM
Sat, Feb 27
2:00 PM
Sat, Feb 27
3:00 PM
Sat, Feb 27
4:00 PM
Sat, Feb 27
5:00 PM
Sat, Feb 27
6:00 PM
Sat, Feb 27
7:00 PM
Sat, Feb 27
8:00 PM
Sat, Feb 27
9:00 PM
Sat, Feb 27
10:00 PM
Sat, Feb 27
11:00 PM
Sun, Feb 28
12:00 AM
Sun, Feb 28
1:00 AM
Sun, Feb 28
2:00 AM
Sun, Feb 28
3:00 AM
Sun, Feb 28
4:00 AM
Sun, Feb 28
5:00 AM
Sun, Feb 28
6:00 AM
Sun, Feb 28
7:00 AM
Sun, Feb 28
8:00 AM
Sun, Feb 28
9:00 AM
Sun, Feb 28
10:00 AM
Sun, Feb 28
11:00 AM
Sun, Feb 28
12:00 PM
Sun, Feb 28
1:00 PM
Sun, Feb 28
2:00 PM
Sun, Feb 28
3:00 PM
Condition
Clear

Clear

Clear

Clear

Clear

Clear

Clear

Clear

Clear

Clear

Clear

Clear

Clouds

Clouds

Clouds

Clouds

Clouds

Clouds

Clouds

Clouds

Clouds

Clouds

Rain

Rain

Rain

Rain

Rain

Rain

Rain

Rain

Rain

Clouds

Clouds

Clouds

Clear

Clear

Clear

Clear

Clear

Clear

Clouds

Clouds

Clouds

Clouds

Clouds

Clouds

Clouds

Clouds
Temperature 27°F27°F27°F27°F28°F28°F28°F28°F29°F31°F32°F33°F34°F35°F36°F37°F37°F37°F38°F38°F39°F39°F38°F38°F40°F40°F41°F41°F42°F43°F43°F43°F43°F42°F42°F40°F39°F38°F36°F36°F37°F37°F38°F39°F40°F40°F40°F40°F
Feels Like 13°F14°F15°F17°F16°F19°F21°F21°F20°F18°F19°F20°F20°F20°F21°F21°F21°F21°F21°F22°F21°F21°F20°F20°F22°F21°F22°F23°F26°F29°F31°F33°F32°F30°F29°F28°F25°F24°F24°F24°F25°F27°F29°F32°F34°F35°F34°F33°F
Cloudiness 0%0%0%0%0%0%0%0%0%0%0%9%36%52%61%67%98%99%99%99%99%99%100%100%100%100%100%100%100%100%100%100%97%87%0%0%0%0%0%0%75%88%92%94%95%96%100%100%
Visibility 6 mi6 mi6 mi6 mi6 mi6 mi6 mi6 mi6 mi6 mi6 mi6 mi6 mi6 mi6 mi6 mi6 mi6 mi6 mi6 mi6 mi6 mi5 mi0 mi6 mi6 mi5 mi4 mi6 mi6 mi6 mi6 mi6 mi6 mi6 mi6 mi6 mi6 mi6 mi6 mi6 mi6 mi6 mi6 mi6 mi6 mi6 mi6 mi
Precipitation 0%0%0%0%0%0%0%0%0%0%0%0%0%0%0%0%0%0%0%0%0%1%75%100%100%100%100%100%100%100%100%80%80%80%0%0%0%0%0%0%0%0%0%0%0%0%0%0%
Humidity 25%54%73%82%86%85%84%83%85%86%88%88%86%83%82%80%79%78%77%76%74%75%89%95%89%88%90%93%94%95%96%97%95%88%83%82%76%78%82%82%80%78%76%74%71%70%71%73%
Dew Point -1°F14°F20°F23°F25°F15°F13°F13°F15°F18°F21°F24°F26°F28°F29°F28°F29°F29°F29°F30°F30°F32°F35°F37°F37°F37°F39°F40°F41°F42°F42°F42°F42°F39°F37°F35°F32°F30°F30°F29°F30°F30°F30°F31°F31°F31°F31°F32°F
Pressure 30.39"30.42"30.47"30.53"30.53"30.53"30.5"30.5"30.5"30.5"30.5"30.47"30.47"30.47"30.47"30.45"30.42"30.39"30.39"30.36"30.33"30.3"30.24"30.21"30.15"30.12"30.09"30.06"30"30"29.97"29.94"29.94"29.97"30"30.03"30.06"30.09"30.12"30.15"30.15"30.18"30.21"30.21"30.21"30.18"30.15"30.12"
Wind Speed 13.6 mph13 mph11.3 mph9.5 mph12.8 mph7.8 mph4.1 mph3.5 mph9 mph14.8 mph16.6 mph17 mph19 mph20.6 mph20.1 mph21.1 mph21.6 mph22.3 mph22.3 mph23.4 mph24.5 mph26.3 mph26.6 mph26.6 mph26.4 mph28.8 mph29.6 mph28.4 mph24.9 mph22 mph19.5 mph15.6 mph16.3 mph17.3 mph17.2 mph16.2 mph19 mph18.2 mph15.1 mph14.3 mph15 mph12.6 mph9.3 mph6.9 mph4.3 mph2.6 mph3.9 mph5.3 mph
Wind
Direction
310°
NW
304°
NW
303°
WNW
289°
WNW
268°
W
287°
WNW
271°
W
199°
SSW
202°
SSW
212°
SSW
211°
SSW
215°
SW
217°
SW
217°
SW
213°
SSW
214°
SW
209°
SSW
207°
SSW
198°
SSW
199°
SSW
194°
SSW
189°
S
188°
S
184°
S
177°
S
175°
S
173°
S
172°
S
179°
S
199°
SSW
206°
SSW
231°
SW
267°
W
285°
WNW
288°
WNW
293°
WNW
306°
NW
312°
NW
311°
NW
309°
NW
315°
NW
327°
NNW
331°
NNW
337°
NNW
343°
NNW
236°
SW
210°
SSW
195°
SSW

Daily Forecast

Date High Low Precip. Humidity
Today
Feb 26

Clear
28 °F
20 °F
0%
84%
Saturday
Feb 27

Rain
43 °F
28 °F
100%
76%
Sunday
Feb 28

Clouds
43 °F
35 °F
74%
77%
Monday
Mar 1

Rain
44 °F
33 °F
100%
89%
Tuesday
Mar 2

Snow
31 °F
15 °F
54%
88%
Wednesday
Mar 3

Snow
38 °F
19 °F
22%
84%
Thursday
Mar 4

Clear
42 °F
35 °F
0%
72%
Friday
Mar 5

Clear
38 °F
31 °F
0%
82%
Saturday
Mar 6

Clouds
34 °F
31 °F
0%
87%
Sunday
Mar 7

Clear
39 °F
33 °F
0%
73%
Monday
Mar 8

Rain
46 °F
39 °F
43%
87%
Tuesday
Mar 9

Rain
48 °F
46 °F
100%
99%
Wednesday
Mar 10

Rain
48 °F
45 °F
100%
90%
Thursday
Mar 11

Snow
44 °F
34 °F
80%
70%
Friday
Mar 12

Clouds
42 °F
31 °F
4%
73%
Saturday
Mar 13

Rain
46 °F
38 °F
100%
96%


Temperature 8-14 Day Outlook



Precipitation 8-14 Day Outlook




Quick Links
Bar Harbor News
Bar Harbor Photos
Bar Harbor Videos




About Us
Contact Us
Site Map
Search Site
Advertise With Us
   
BarHarbor.USCoast.info
THE BAR HARBOR WEBSITE

Copyright 2021, Coastal Town
Privacy    |    Legal